Location: Capel Gartheli
(52.1833°N, 4.0667°W)
Time: 09:59:15
(UTC+00:00)

MOS 1-B - Pass Details

Date: 18 February 2020
Orbit: 905 x 913 km, 99.4° (Epoch: 09 April)

Event Time Altitude Azimuth Distance (km) Brightness Sun altitude
Rises 06:04:10 0° 15° (NNE) 3,560 7.6 -13.3°
Reaches altitude 10° 06:06:36 10° 15° (NNE) 2,614 6.9 -12.9°
Maximum altitude 06:12:26 81° 289° (WNW) 930 4.3 -12.0°
Drops below altitude 10° 06:18:14 10° 203° (SSW) 2,599 6.6 -11.1°
Sets 06:20:38 0° 203° (SSW) 3,536 7.3 -10.8°
